Location: Berville
(49.1893°N, 2.0748°E)
Time: 06:42:33
(UTC+00:00)

Cosmos 968 Rocket - Pass Details

Date: 08 February 2023
Orbit: 739 x 770 km, 74.0° (Epoch: 21 March)

Event Time Altitude Azimuth Distance (km) Brightness Sun altitude
Rises 19:09:02 0° 204° (SSW) 3,205 7.0 -21.5°
Reaches altitude 10° 19:11:23 10° 206° (SSW) 2,288 6.2 -21.9°
Maximum altitude 19:16:35 81° 294° (WNW) 781 3.5 -22.7°
Enters shadow 19:20:38 18° 21° (NNE) 1,849 5.3 -23.4°
